7 * 24
多渠道服务支持
STARLINK-33560 是 SpaceX Starlink 卫星互联网项目中的一颗低轨卫星,属于第三代 Starlink 卫星(v1.5 或 v2 构型)。该卫星由猎鹰 9 号火箭发射入轨,旨在为全球用户提供高速、低延迟的宽带互联网服务。它运行在约 550 公里的轨道高度,采用先进的通信技术,支持全球范围内的网络连接,尤其服务于偏远地区。Starlink 项目计划部署数万颗卫星,以构建覆盖全球的卫星互联网系统。
美国
(US)
| 数据来源 | 国际轨道数据 |
| 星历时间: | 2025-11-07T01:00:36+0800 1天前 查看轨道信息 |
| 半长轴: | 6861.045km |
| 偏心率: | 0.0001036 |
| 轨道倾角: | 42.997° |
| 近地点辐角 | 295.519° |
| 升交点赤经 | 190.888° |
| 平近点角 | 64.555° |
| 近地点: | 482.199km |
| 远地点: | 483.621km |
| 周期: | 94.264分钟 |
| 每日圈数: | 15.276274 |